Location: Eaton
(41.3139°N, 82.0207°W)
Time: 07:33:46
(UTC+00:00)

Cosmos 2285 Rocket - Pass Details

Date: 02 November 2021
Orbit: 970 x 1000 km, 74.0° (Epoch: 06 December)

Event Time Altitude Azimuth Distance (km) Brightness Sun altitude
Rises 10:00:39 0° 352° (N) 3,727 7.0 -23.0°
Reaches altitude 10° 10:04:11 10° 10° (N) 2,776 6.5 -22.3°
Maximum altitude 10:08:27 18° 52° (NE) 2,233 6.5 -21.5°
Drops below altitude 10° 10:12:42 10° 94° (E) 2,768 7.6 -20.7°
Sets 10:16:11 0° 113° (ESE) 3,711 8.3 -20.1°
